| time (UTC) | temp F | wind direction | speed knots | gust knots | rain 1hr in | rain 24hr in | rain mn in | humidity % | barometer mb |
| 20260505102033 | 48 | 143 | 0.0 | 0.0 | 0.00 | 0.00 | 0.00 | 15 | 1012.3 |
| 20260505101532 | 48 | 142 | 0.0 | 0.0 | 0.00 | 0.00 | 0.00 | 15 | 1012.2 |
| 20260505101027 | 48 | 139 | 0.0 | 0.0 | 0.00 | 0.00 | 0.00 | 15 | 1012.4 |
| 20260505100525 | 48 | 137 | 0.9 | 0.9 | 0.00 | 0.00 | 0.00 | 15 | 1012.3 |
| 20260505100021 | 49 | 138 | 2.6 | 2.6 | 0.00 | 0.00 | 0.00 | 15 | 1012.4 |
| 20260505095517 | 49 | 139 | 2.6 | 2.6 | 0.00 | 0.00 | 0.00 | 15 | 1012.2 |
| 20260505095014 | 49 | 136 | 3.5 | 4.3 | 0.00 | 0.00 | 0.00 | 15 | 1012.2 |
| 20260505094511 | 50 | 153 | 5.2 | 6.1 | 0.00 | 0.00 | 0.00 | 15 | 1012.2 |
| 20260505094007 | 50 | 153 | 1.7 | 1.7 | 0.00 | 0.00 | 0.00 | 15 | 1012.1 |
| 20260505093503 | 50 | 153 | 4.3 | 6.1 | 0.00 | 0.00 | 0.00 | 15 | 1012.1 |
| 20260505093001 | 50 | 124 | 5.2 | 6.1 | 0.00 | 0.00 | 0.00 | 15 | 1012.2 |
| 20260505092458 | 50 | 135 | 3.5 | 4.3 | 0.00 | 0.00 | 0.00 | 15 | 1011.9 |
| 20260505091956 | 50 | 122 | 4.3 | 5.2 | 0.00 | 0.00 | 0.00 | 15 | 1012.0 |
| 20260505091453 | 50 | 125 | 2.6 | 2.6 | 0.00 | 0.00 | 0.00 | 15 | 1011.9 |
| 20260505090951 | 50 | 112 | 3.5 | 4.3 | 0.00 | 0.00 | 0.00 | 15 | 1011.9 |
| 20260505090449 | 50 | 106 | 4.3 | 4.3 | 0.00 | 0.00 | 0.00 | 15 | 1011.9 |
| 20260505085946 | 50 | 107 | 2.6 | 2.6 | 0.00 | 0.00 | 0.00 | 15 | 1012.0 |
| 20260505085444 | 50 | 104 | 3.5 | 4.3 | 0.00 | 0.00 | 0.00 | 15 | 1012.0 |
| 20260505084942 | 50 | 97 | 4.3 | 6.1 | 0.00 | 0.00 | 0.00 | 15 | 1011.8 |
| 20260505084440 | 50 | 121 | 1.7 | 1.7 | 0.00 | 0.00 | 0.00 | 15 | 1012.0 |
| 20260505083937 | 51 | 115 | 3.5 | 4.3 | 0.00 | 0.00 | 0.00 | 15 | 1011.9 |
| 20260505083434 | 51 | 111 | 3.5 | 4.3 | 0.00 | 0.00 | 0.00 | 15 | 1012.1 |
| 20260505082931 | 51 | 116 | 2.6 | 2.6 | 0.00 | 0.00 | 0.00 | 15 | 1011.9 |
| 20260505082426 | 51 | 118 | 3.5 | 4.3 | 0.00 | 0.00 | 0.00 | 15 | 1012.1 |
| 20260505081924 | 51 | 127 | 2.6 | 2.6 | 0.00 | 0.00 | 0.00 | 15 | 1012.1 |
| 20260505081421 | 51 | 125 | 3.5 | 4.3 | 0.00 | 0.00 | 0.00 | 15 | 1011.9 |
| 20260505080917 | 51 | 118 | 6.1 | 7.0 | 0.00 | 0.00 | 0.00 | 15 | 1012.0 |
| 20260505080413 | 51 | 109 | 7.0 | 7.8 | 0.00 | 0.00 | 0.00 | 15 | 1012.0 |
| 20260505075909 | 51 | 112 | 4.3 | 6.1 | 0.00 | 0.00 | 0.00 | 15 | 1012.0 |
| 20260505075406 | 51 | 112 | 5.2 | 6.1 | 0.00 | 0.00 | 0.00 | 15 | 1011.9 |
| 20260505074903 | 51 | 109 | 5.2 | 7.0 | 0.00 | 0.00 | 0.00 | 15 | 1011.9 |
| 20260505074400 | 52 | 101 | 6.1 | 7.8 | 0.00 | 0.00 | 0.00 | 15 | 1011.8 |
| 20260505073857 | 52 | 105 | 5.2 | 6.1 | 0.00 | 0.00 | 0.00 | 15 | 1012.0 |
| 20260505073355 | 52 | 104 | 6.1 | 7.8 | 0.00 | 0.00 | 0.00 | 15 | 1012.0 |
| 20260505072852 | 52 | 111 | 4.3 | 5.2 | 0.00 | 0.00 | 0.00 | 15 | 1011.8 |
| 20260505072348 | 52 | 108 | 4.3 | 5.2 | 0.00 | 0.00 | 0.00 | 15 | 1011.8 |
| 20260505071844 | 52 | 97 | 6.1 | 6.1 | 0.00 | 0.00 | 0.00 | 15 | 1012.1 |
| 20260505071341 | 51 | 110 | 2.6 | 2.6 | 0.00 | 0.00 | 0.00 | 15 | 1011.8 |
| 20260505070839 | 51 | 103 | 4.3 | 5.2 | 0.00 | 0.00 | 0.00 | 15 | 1011.6 |
| 20260505070335 | 51 | 156 | 0.0 | 0.0 | 0.00 | 0.00 | 0.00 | 15 | 1011.8 |
| 20260505065830 | 51 | 161 | 0.0 | 0.0 | 0.00 | 0.00 | 0.00 | 15 | 1011.6 |
| 20260505065327 | 51 | 168 | 0.0 | 0.0 | 0.00 | 0.00 | 0.00 | 15 | 1011.8 |
| 20260505064825 | 51 | 170 | 0.0 | 0.0 | 0.00 | 0.00 | 0.00 | 15 | 1011.4 |
| 20260505064321 | 52 | 168 | 0.0 | 0.0 | 0.00 | 0.00 | 0.00 | 15 | 1011.9 |
| 20260505063820 | 52 | 175 | 2.6 | 2.6 | 0.00 | 0.00 | 0.00 | 15 | 1011.6 |
| 20260505063315 | 52 | 164 | 4.3 | 4.3 | 0.00 | 0.00 | 0.00 | 15 | 1012.0 |
| 20260505062812 | 52 | 175 | 2.6 | 2.6 | 0.00 | 0.00 | 0.00 | 15 | 1011.6 |
| 20260505062310 | 52 | 161 | 5.2 | 6.1 | 0.00 | 0.00 | 0.00 | 15 | 1011.6 |
| 20260505061806 | 52 | 191 | 4.3 | 5.2 | 0.00 | 0.00 | 0.00 | 15 | 1011.5 |
| 20260505061305 | 53 | 177 | 6.1 | 6.1 | 0.00 | 0.00 | 0.00 | 15 | 1011.8 |
| 20260505060802 | 53 | 205 | 10.4 | 12.2 | 0.00 | 0.00 | 0.00 | 15 | 1010.6 |
| 20260505060259 | 53 | 194 | 4.3 | 6.1 | 0.00 | 0.00 | 0.00 | 15 | 1011.8 |
| 20260505055754 | 53 | 190 | 5.2 | 7.0 | 0.00 | 0.00 | 0.00 | 15 | 1012.0 |
| 20260505055250 | 53 | 159 | 6.1 | 7.0 | 0.00 | 0.00 | 0.00 | 15 | 1012.1 |
| 20260505054748 | 54 | 153 | 5.2 | 6.1 | 0.00 | 0.00 | 0.00 | 15 | 1011.9 |
| 20260505054245 | 54 | 129 | 12.2 | 13.0 | 0.00 | 0.00 | 0.00 | 15 | 1012.1 |
| 20260505053743 | 54 | 100 | 11.3 | 13.9 | 0.00 | 0.00 | 0.00 | 15 | 1012.3 |
| 20260505053240 | 54 | 111 | 8.7 | 9.6 | 0.00 | 0.00 | 0.00 | 15 | 1012.2 |
| 20260505052737 | 54 | 94 | 7.8 | 8.7 | 0.00 | 0.00 | 0.00 | 15 | 1012.1 |
| 20260505052234 | 55 | 95 | 7.8 | 8.7 | 0.00 | 0.00 | 0.00 | 15 | 1012.3 |
| 20260505051731 | 55 | 72 | 7.8 | 8.7 | 0.00 | 0.00 | 0.00 | 15 | 1012.1 |
| 20260505051229 | 55 | 72 | 7.0 | 7.8 | 0.00 | 0.00 | 0.00 | 15 | 1011.9 |
| 20260505050727 | 55 | 90 | 4.3 | 5.2 | 0.00 | 0.00 | 0.00 | 15 | 1011.8 |
| 20260505050225 | 55 | 146 | 2.6 | 2.6 | 0.00 | 0.00 | 0.00 | 15 | 1011.5 |
| 20260505041654 | 56 | 142 | 12.2 | 13.9 | 0.00 | 0.00 | 0.00 | 15 | 1011.5 |
| 20260505041152 | 57 | 134 | 16.5 | 18.2 | 0.00 | 0.00 | 0.00 | 15 | 1011.6 |
| 20260505040649 | 57 | 137 | 13.0 | 14.8 | 0.00 | 0.00 | 0.00 | 15 | 1011.4 |
| 20260505040146 | 57 | 132 | 13.0 | 14.8 | 0.00 | 0.00 | 0.00 | 15 | 1011.1 |
| 20260505035642 | 58 | 133 | 13.9 | 15.6 | 0.00 | 0.00 | 0.00 | 15 | 1011.0 |
| 20260505035138 | 58 | 128 | 10.4 | 12.2 | 0.00 | 0.00 | 0.00 | 15 | 1010.7 |
| 20260505034635 | 58 | 121 | 7.8 | 8.7 | 0.00 | 0.00 | 0.00 | 15 | 1010.2 |
| 20260505034132 | 57 | 117 | 6.1 | 7.0 | 0.00 | 0.00 | 0.00 | 15 | 1010.1 |
| 20260505033628 | 57 | 104 | 6.1 | 7.0 | 0.00 | 0.00 | 0.00 | 15 | 1010.2 |
| 20260505033127 | 57 | 98 | 6.1 | 6.1 | 0.00 | 0.00 | 0.00 | 15 | 1010.1 |
| 20260505032625 | 57 | 112 | 2.6 | 2.6 | 0.00 | 0.00 | 0.00 | 15 | 1009.8 |
| 20260505032121 | 58 | 116 | 5.2 | 6.1 | 0.00 | 0.00 | 0.00 | 15 | 1009.6 |
| 20260505031618 | 59 | 133 | 4.3 | 4.3 | 0.00 | 0.00 | 0.00 | 15 | 1009.8 |
| 20260505031114 | 58 | 151 | 2.6 | 2.6 | 0.00 | 0.00 | 0.00 | 15 | 1009.8 |
| 20260505030611 | 58 | 166 | 1.7 | 1.7 | 0.00 | 0.00 | 0.00 | 15 | 1009.8 |
| 20260505030107 | 58 | 172 | 1.7 | 1.7 | 0.00 | 0.00 | 0.00 | 15 | 1009.7 |
| 20260505025602 | 58 | 192 | 0.9 | 0.9 | 0.00 | 0.00 | 0.00 | 15 | 1009.8 |
| 20260505025057 | 59 | 207 | 2.6 | 2.6 | 0.00 | 0.00 | 0.00 | 15 | 1009.8 |
| 20260505024553 | 60 | 201 | 3.5 | 4.3 | 0.00 | 0.00 | 0.00 | 15 | 1009.9 |
| 20260505024051 | 60 | 199 | 4.3 | 4.3 | 0.00 | 0.00 | 0.00 | 15 | 1009.7 |
| 20260505023548 | 60 | 193 | 4.3 | 5.2 | 0.00 | 0.00 | 0.00 | 15 | 1009.9 |
| 20260505023045 | 60 | 194 | 5.2 | 7.0 | 0.00 | 0.00 | 0.00 | 15 | 1009.7 |
| 20260505022542 | 61 | 173 | 5.2 | 6.1 | 0.00 | 0.00 | 0.00 | 15 | 1010.1 |
| 20260505022040 | 61 | 194 | 6.1 | 7.0 | 0.00 | 0.00 | 0.00 | 15 | 1009.8 |
| 20260505021536 | 62 | 170 | 11.3 | 13.0 | 0.00 | 0.00 | 0.00 | 15 | 1010.1 |
| 20260505021033 | 62 | 188 | 9.6 | 11.3 | 0.00 | 0.00 | 0.00 | 15 | 1010.3 |
| 20260505020532 | 62 | 162 | 6.1 | 7.8 | 0.00 | 0.00 | 0.00 | 15 | 1009.9 |
| 20260505020030 | 62 | 160 | 13.9 | 15.6 | 0.00 | 0.00 | 0.00 | 15 | 1010.2 |
| 20260505015527 | 62 | 161 | 12.2 | 14.8 | 0.00 | 0.00 | 0.00 | 15 | 1010.2 |
| 20260505015024 | 62 | 167 | 9.6 | 12.2 | 0.00 | 0.00 | 0.00 | 15 | 1009.9 |
| 20260505014520 | 62 | 166 | 14.8 | 18.2 | 0.00 | 0.00 | 0.00 | 15 | 1009.9 |
| 20260505014018 | 62 | 149 | 13.9 | 15.6 | 0.00 | 0.00 | 0.00 | 15 | 1010.2 |
| 20260505013515 | 62 | 164 | 16.5 | 18.2 | 0.00 | 0.00 | 0.00 | 15 | 1010.1 |
| 20260505013012 | 63 | 176 | 10.4 | 18.2 | 0.00 | 0.00 | 0.00 | 15 | 1010.2 |
| 20260505012510 | 63 | 164 | 14.8 | 18.2 | 0.00 | 0.00 | 0.00 | 15 | 1010.1 |
| 20260505012007 | 63 | 164 | 17.4 | 20.0 | 0.00 | 0.00 | 0.00 | 15 | 1009.8 |
| 20260505011502 | 63 | 162 | 14.8 | 17.4 | 0.00 | 0.00 | 0.00 | 15 | 1009.7 |
| 20260505011000 | 65 | 177 | 13.9 | 15.6 | 0.00 | 0.00 | 0.00 | 15 | 1009.6 |
| 20260505010455 | 65 | 178 | 18.2 | 19.1 | 0.00 | 0.00 | 0.00 | 15 | 1009.7 |
| 20260505005951 | 64 | 186 | 13.0 | 14.8 | 0.00 | 0.00 | 0.00 | 15 | 1009.5 |
| 20260505005448 | 64 | 170 | 13.0 | 14.8 | 0.00 | 0.00 | 0.00 | 15 | 1009.4 |
| 20260505004946 | 65 | 177 | 15.6 | 18.2 | 0.00 | 0.00 | 0.00 | 15 | 1009.3 |
| 20260505004442 | 65 | 173 | 14.8 | 20.0 | 0.00 | 0.00 | 0.00 | 15 | 1009.4 |
| 20260505003939 | 65 | 168 | 15.6 | 18.2 | 0.00 | 0.00 | 0.00 | 15 | 1009.0 |
| 20260505003437 | 64 | 154 | 15.6 | 15.6 | 0.00 | 0.00 | 0.00 | 15 | 1009.0 |
| 20260505002933 | 63 | 158 | 11.3 | 14.8 | 0.00 | 0.00 | 0.00 | 15 | 1009.1 |
| 20260505002429 | 63 | 175 | 7.8 | 11.3 | 0.00 | 0.00 | 0.00 | 15 | 1008.8 |
| 20260505001928 | 63 | 137 | 10.4 | 12.2 | 0.00 | 0.00 | 0.00 | 15 | 1008.9 |
| 20260505001425 | 63 | 160 | 13.0 | 13.9 | 0.00 | 0.00 | 0.00 | 15 | 1008.9 |
| 20260505000921 | 63 | 159 | 9.6 | 11.3 | 0.00 | 0.00 | 0.00 | 15 | 1009.1 |
| 20260505000420 | 63 | 131 | 10.4 | 12.2 | 0.00 | 0.00 | 0.00 | 15 | 1009.7 |
| 20260504235916 | 63 | 115 | 14.8 | 15.6 | 0.00 | 0.00 | 0.00 | 15 | 1009.5 |
| 20260504235408 | 63 | 142 | 13.0 | 14.8 | 0.00 | 0.00 | 0.00 | 15 | 1009.1 |
| 20260504234904 | 63 | 162 | 12.2 | 15.6 | 0.00 | 0.00 | 0.00 | 15 | 1009.0 |
| 20260504234402 | 64 | 146 | 14.8 | 18.2 | 0.00 | 0.00 | 0.00 | 15 | 1008.8 |
| 20260504233858 | 64 | 178 | 15.6 | 19.1 | 0.00 | 0.00 | 0.00 | 15 | 1008.6 |
| 20260504233354 | 64 | 170 | 12.2 | 13.9 | 0.00 | 0.00 | 0.00 | 15 | 1008.6 |
| 20260504232850 | 64 | 166 | 14.8 | 18.2 | 0.00 | 0.00 | 0.00 | 15 | 1008.4 |
| 20260504232348 | 64 | 161 | 16.5 | 23.5 | 0.00 | 0.00 | 0.00 | 15 | 1008.2 |
| 20260504231844 | 64 | 171 | 20.9 | 26.1 | 0.00 | 0.00 | 0.00 | 15 | 1008.5 |
| 20260504231341 | 64 | 155 | 20.9 | 25.2 | 0.00 | 0.00 | 0.00 | 15 | 1008.5 |
| 20260504230837 | 65 | 159 | 24.3 | 26.9 | 0.00 | 0.00 | 0.00 | 15 | 1008.4 |
| 20260504230335 | 64 | 139 | 22.6 | 27.8 | 0.00 | 0.00 | 0.00 | 15 | 1008.1 |
| 20260504225834 | 66 | 170 | 19.1 | 21.7 | 0.00 | 0.00 | 0.00 | 15 | 1007.9 |
| 20260504225330 | 65 | 190 | 26.1 | 32.2 | 0.00 | 0.00 | 0.00 | 15 | 1007.9 |
| 20260504224827 | 65 | 147 | 19.1 | 22.6 | 0.00 | 0.00 | 0.00 | 15 | 1007.7 |
| 20260504224324 | 65 | 197 | 20.9 | 25.2 | 0.00 | 0.00 | 0.00 | 15 | 1007.6 |
| 20260504223821 | 66 | 164 | 23.5 | 25.2 | 0.00 | 0.00 | 0.00 | 15 | 1007.6 |
| 20260504223316 | 68 | 181 | 27.8 | 30.4 | 0.00 | 0.00 | 0.00 | 15 | 1007.6 |
| 20260504222813 | 71 | 183 | 21.7 | 26.1 | 0.00 | 0.00 | 0.00 | 15 | 1007.3 |
| 20260504222310 | 76 | 183 | 11.3 | 12.2 | 0.00 | 0.00 | 0.00 | 15 | 1007.8 |
| 20260504221808 | 74 | 196 | 8.7 | 9.6 | 0.00 | 0.00 | 0.00 | 15 | 1007.9 |
| 20260504221305 | 75 | 168 | 7.0 | 8.7 | 0.00 | 0.00 | 0.00 | 15 | 1007.7 |
| 20260504220802 | 74 | 213 | 4.3 | 5.2 | 0.00 | 0.00 | 0.00 | 15 | 1007.8 |
| 20260504220258 | 75 | 190 | 2.6 | 4.3 | 0.00 | 0.00 | 0.00 | 15 | 1007.8 |
| 20260504215756 | 74 | 148 | 0.9 | 1.7 | 0.00 | 0.00 | 0.00 | 15 | 1007.8 |
| 20260504215252 | 74 | 186 | 4.3 | 5.2 | 0.00 | 0.00 | 0.00 | 15 | 1008.0 |
| 20260504214748 | 72 | 179 | 0.0 | 0.0 | 0.00 | 0.00 | 0.00 | 15 | 1007.8 |
| 20260504214244 | 73 | 108 | 2.6 | 2.6 | 0.00 | 0.00 | 0.00 | 15 | 1007.8 |
| 20260504213741 | 73 | 132 | 7.0 | 9.6 | 0.00 | 0.00 | 0.00 | 15 | 1008.0 |
| 20260504213232 | 73 | 151 | 0.9 | 2.6 | 0.00 | 0.00 | 0.00 | 15 | 1008.1 |
| 20260504212729 | 76 | 147 | 3.5 | 4.3 | 0.00 | 0.00 | 0.00 | 15 | 1008.5 |
| 20260504212225 | 75 | 187 | 4.3 | 5.2 | 0.00 | 0.00 | 0.00 | 15 | 1008.5 |
| 20260504211722 | 73 | 142 | 2.6 | 2.6 | 0.00 | 0.00 | 0.00 | 15 | 1008.6 |
| 20260504211213 | 73 | 70 | 2.6 | 2.6 | 0.00 | 0.00 | 0.00 | 15 | 1008.6 |
| 20260504210711 | 72 | 207 | 1.7 | 1.7 | 0.00 | 0.00 | 0.00 | 15 | 1008.6 |
| 20260504210208 | 72 | 240 | 5.2 | 6.1 | 0.00 | 0.00 | 0.00 | 15 | 1008.8 |
| 20260504205705 | 71 | 212 | 6.1 | 7.0 | 0.00 | 0.00 | 0.00 | 15 | 1008.9 |
| 20260504205202 | 70 | 201 | 4.3 | 6.1 | 0.00 | 0.00 | 0.00 | 15 | 1009.1 |
| 20260504204701 | 70 | 171 | 6.1 | 6.1 | 0.00 | 0.00 | 0.00 | 15 | 1009.1 |
| 20260504204159 | 70 | 156 | 4.3 | 5.2 | 0.00 | 0.00 | 0.00 | 15 | 1009.1 |
| 20260504203657 | 70 | 136 | 6.1 | 6.1 | 0.00 | 0.00 | 0.00 | 15 | 1009.4 |
| 20260504203154 | 70 | 158 | 7.8 | 8.7 | 0.00 | 0.00 | 0.00 | 15 | 1009.1 |
| 20260504202649 | 71 | 185 | 7.8 | 8.7 | 0.00 | 0.00 | 0.00 | 15 | 1009.4 |
| 20260504202146 | 71 | 192 | 3.5 | 4.3 | 0.00 | 0.00 | 0.00 | 15 | 1009.5 |
| 20260504201643 | 71 | 197 | 6.1 | 6.1 | 0.00 | 0.00 | 0.00 | 15 | 1009.5 |
| 20260504201141 | 72 | 189 | 8.7 | 9.6 | 0.00 | 0.00 | 0.00 | 15 | 1009.4 |
| 20260504200638 | 72 | 162 | 3.5 | 4.3 | 0.00 | 0.00 | 0.00 | 15 | 1009.5 |
| 20260504200134 | 73 | 156 | 9.6 | 9.6 | 0.00 | 0.00 | 0.00 | 15 | 1009.5 |
| 20260504195630 | 73 | 159 | 6.1 | 7.0 | 0.00 | 0.00 | 0.00 | 15 | 1009.5 |
| 20260504195127 | 73 | 132 | 3.5 | 5.2 | 0.00 | 0.00 | 0.00 | 15 | 1009.8 |
| 20260504194624 | 73 | 94 | 8.7 | 11.3 | 0.00 | 0.00 | 0.00 | 15 | 1009.7 |
| 20260504194120 | 72 | 118 | 8.7 | 8.7 | 0.00 | 0.00 | 0.00 | 15 | 1009.8 |
| 20260504193616 | 71 | 132 | 13.0 | 13.9 | 0.00 | 0.00 | 0.00 | 15 | 1009.7 |
| 20260504193114 | 71 | 171 | 4.3 | 4.3 | 0.00 | 0.00 | 0.00 | 15 | 1010.1 |
| 20260504192612 | 73 | 161 | 7.8 | 7.8 | 0.00 | 0.00 | 0.00 | 15 | 1009.9 |
| 20260504192110 | 72 | 183 | 5.2 | 6.1 | 0.00 | 0.00 | 0.00 | 15 | 1010.1 |
| 20260504191608 | 71 | 166 | 6.1 | 7.0 | 0.00 | 0.00 | 0.00 | 15 | 1010.3 |
| 20260504191104 | 71 | 193 | 7.8 | 9.6 | 0.00 | 0.00 | 0.00 | 15 | 1010.3 |
| 20260504190600 | 70 | 172 | 6.1 | 8.7 | 0.00 | 0.00 | 0.00 | 15 | 1010.5 |
| 20260504190056 | 71 | 177 | 7.0 | 7.8 | 0.00 | 0.00 | 0.00 | 15 | 1010.3 |
| 20260504185553 | 71 | 222 | 10.4 | 13.0 | 0.00 | 0.00 | 0.00 | 15 | 1010.6 |
| 20260504185050 | 71 | 199 | 11.3 | 13.0 | 0.00 | 0.00 | 0.00 | 15 | 1010.5 |
| 20260504184546 | 70 | 197 | 6.1 | 7.8 | 0.00 | 0.00 | 0.00 | 15 | 1010.7 |
| 20260504184041 | 70 | 204 | 1.7 | 1.7 | 0.00 | 0.00 | 0.00 | 15 | 1010.7 |
| 20260504183538 | 70 | 168 | 3.5 | 4.3 | 0.00 | 0.00 | 0.00 | 15 | 1011.0 |
| 20260504183036 | 69 | 192 | 10.4 | 11.3 | 0.00 | 0.00 | 0.00 | 15 | 1010.7 |
| 20260504182533 | 70 | 160 | 7.8 | 9.6 | 0.00 | 0.00 | 0.00 | 15 | 1011.0 |
| 20260504182031 | 69 | 122 | 6.1 | 7.0 | 0.00 | 0.00 | 0.00 | 15 | 1011.0 |
| 20260504181527 | 68 | 195 | 3.5 | 6.1 | 0.00 | 0.00 | 0.00 | 15 | 1010.7 |
| 20260504181026 | 70 | 184 | 2.6 | 4.3 | 0.00 | 0.00 | 0.00 | 15 | 1011.0 |
| 20260504180524 | 71 | 185 | 4.3 | 6.1 | 0.00 | 0.00 | 0.00 | 15 | 1010.7 |
| 20260504180023 | 69 | 53 | 4.3 | 5.2 | 0.00 | 0.00 | 0.00 | 15 | 1011.0 |
| 20260504175519 | 70 | 145 | 0.0 | 0.9 | 0.00 | 0.00 | 0.00 | 15 | 1011.0 |
| 20260504175017 | 70 | 90 | 2.6 | 2.6 | 0.00 | 0.00 | 0.00 | 15 | 1011.1 |
| 20260504174514 | 68 | 115 | 2.6 | 2.6 | 0.00 | 0.00 | 0.00 | 15 | 1011.2 |
| 20260504174011 | 68 | 149 | 2.6 | 2.6 | 0.00 | 0.00 | 0.00 | 15 | 1011.2 |
| 20260504173508 | 67 | 40 | 6.1 | 7.0 | 0.00 | 0.00 | 0.00 | 15 | 1011.4 |
| 20260504173005 | 68 | 320 | 7.0 | 7.8 | 0.00 | 0.00 | 0.00 | 15 | 1011.0 |
| 20260504172501 | 67 | 30 | 3.5 | 5.2 | 0.00 | 0.00 | 0.00 | 15 | 1011.3 |
| 20260504171957 | 66 | 235 | 3.5 | 4.3 | 0.00 | 0.00 | 0.00 | 15 | 1011.2 |
| 20260504171455 | 68 | 193 | 2.6 | 2.6 | 0.00 | 0.00 | 0.00 | 15 | 1011.2 |
| 20260504170951 | 66 | 183 | 3.5 | 4.3 | 0.00 | 0.00 | 0.00 | 15 | 1011.4 |
| 20260504170447 | 66 | 187 | 4.3 | 5.2 | 0.00 | 0.00 | 0.00 | 15 | 1011.3 |
| 20260504160408 | 63 | 159 | 0.9 | 0.9 | 0.00 | 0.00 | 0.00 | 15 | 1011.9 |
| 20260504150832 | 59 | 186 | 2.6 | 2.6 | 0.00 | 0.00 | 0.00 | 15 | 1012.3 |
| 20260504150328 | 58 | 183 | 2.6 | 2.6 | 0.00 | 0.00 | 0.00 | 15 | 1012.4 |
| 20260504141258 | 50 | 311 | 1.7 | 1.7 | 0.00 | 0.00 | 0.00 | 15 | 1012.8 |
| 20260504140755 | 49 | 310 | 1.7 | 1.7 | 0.00 | 0.00 | 0.00 | 15 | 1012.7 |
| 20260504140250 | 48 | 311 | 1.7 | 1.7 | 0.00 | 0.00 | 0.00 | 15 | 1012.8 |
| 20260504130719 | 41 | 317 | 3.5 | 4.3 | 0.00 | 0.00 | 0.00 | 15 | 1012.7 |
| 20260504130215 | 39 | 317 | 2.6 | 2.6 | 0.00 | 0.00 | 0.00 | 15 | 1012.7 |
| 20260504120139 | 42 | 307 | 3.5 | 4.3 | 0.00 | 0.00 | 0.00 | 15 | 1012.2 |
| 20260504110607 | 40 | 317 | 1.7 | 1.7 | 0.00 | 0.00 | 0.00 | 15 | 1012.5 |